Terminal Aerodrome Forecast
Issued by NWS Missoula, MT

Home | Current Version | Previous Version | Text Only | Print | Product List | Glossary On
Versions: 1 2 3 4 5 6 7 8 9 10 11 12
914
FTUS45 KMSO 052320
TAFBTM
TAF
KBTM 052320Z 0600/0624 VRB03KT P6SM SCT150
     FM060300 04012G20KT P6SM BKN090
     FM060700 24012KT P6SM BKN060
     FM061500 33010KT P6SM VCSH BKN030
     FM061800 07012KT P6SM BKN050=

USA.gov is the U.S. government's official web portal to all federal, state and local government web resources and services.